Latest news:   Our almost non-existent wet season continues. View our forecast to see if any rain is due. Click Here Friday, 24 Feb 2017

OceanView Weather - Today's Weather Data

Time

Temp

Humid

Dew
Point
Feels
Like
Wind

Wind
Dir
Rain

Air Pres.

Solar
Rad.
UV Index

20:45 21.4°C 83% 18.4°C 24.0°C 2.6Kts E 0.0mm 1015.7hpa 0.0
20:43 21.3°C 83% 18.3°C 23.9°C 3.5Kts E 0.0mm 1015.7hpa 0.0
20:41 21.3°C 83% 18.3°C 23.9°C 0.0Kts E 0.0mm 1015.8hpa 0.0
20:39 21.3°C 83% 18.3°C 23.9°C 1.7Kts E 0.0mm 1015.7hpa 0.0
20:37 21.3°C 83% 18.3°C 23.9°C 1.7Kts ENE 0.0mm 1015.8hpa 0.0
20:35 21.3°C 83% 18.3°C 23.9°C 0.9Kts ENE 0.0mm 1015.7hpa 0.0
20:33 21.3°C 83% 18.3°C 23.9°C 1.7Kts ENE 0.0mm 1015.7hpa 0.0
20:31 21.2°C 83% 18.2°C 23.8°C 0.0Kts E 0.0mm 1015.7hpa 0.0
20:29 21.2°C 82% 18.0°C 23.7°C 1.7Kts E 0.0mm 1015.7hpa 0.0
20:27 21.2°C 82% 18.0°C 24.0°C 0.0Kts E 0.0mm 1015.8hpa 0.0
20:25 21.2°C 82% 18.0°C 24.0°C 0.0Kts E 0.0mm 1015.7hpa 0.0
20:23 21.2°C 82% 18.0°C 24.0°C 0.0Kts E 0.0mm 1015.8hpa 0.0
20:21 21.3°C 82% 18.1°C 24.1°C 0.9Kts E 0.0mm 1015.8hpa 0.0
20:19 21.3°C 82% 18.1°C 24.1°C 0.0Kts E 0.0mm 1015.8hpa 0.0
20:17 21.3°C 82% 18.1°C 24.1°C 0.0Kts E 0.0mm 1015.8hpa 0.0
20:15 21.3°C 82% 18.1°C 24.1°C 0.0Kts E 0.0mm 1015.8hpa 0.0
20:13 21.3°C 82% 18.1°C 24.1°C 0.0Kts E 0.0mm 1015.7hpa 0.0
20:11 21.3°C 82% 18.1°C 23.8°C 0.0Kts E 0.0mm 1015.7hpa 0.0
20:09 21.4°C 82% 18.2°C 24.0°C 0.0Kts E 0.0mm 1015.7hpa 0.0
20:07 21.4°C 81% 18.0°C 23.9°C 2.6Kts ENE 0.0mm 1015.7hpa 0.0
20:05 21.4°C 81% 18.0°C 23.6°C 0.0Kts E 0.0mm 1015.7hpa 0.0
20:03 21.4°C 81% 18.0°C 23.6°C 0.9Kts E 0.0mm 1015.6hpa 0.0
20:01 21.5°C 81% 18.1°C 23.7°C 0.9Kts E 0.0mm 1015.7hpa 0.0
19:59 21.5°C 81% 18.1°C 23.7°C 0.9Kts ENE 0.0mm 1015.6hpa 0.0
19:57 21.5°C 81% 18.1°C 23.7°C 2.6Kts ENE 0.0mm 1015.6hpa 0.0
19:55 21.5°C 81% 18.1°C 23.7°C 0.9Kts ENE 0.0mm 1015.6hpa 0.0
19:53 21.4°C 81% 18.0°C 23.6°C 3.5Kts ESE 0.0mm 1015.5hpa 0.0
19:51 21.5°C 81% 18.1°C 23.7°C 2.6Kts ENE 0.0mm 1015.6hpa 0.0
19:49 21.5°C 81% 18.1°C 23.4°C 4.3Kts ENE 0.0mm 1015.6hpa 0.0
19:47 21.4°C 81% 18.0°C 23.3°C 1.7Kts E 0.0mm 1015.6hpa 0.0
19:45 21.4°C 81% 18.0°C 23.3°C 2.6Kts E 0.0mm 1015.5hpa 0.0
19:43 21.4°C 81% 18.0°C 23.3°C 3.5Kts E 0.0mm 1015.5hpa 0.0
19:41 21.4°C 81% 18.0°C 23.3°C 0.9Kts E 0.0mm 1015.4hpa 0.0
19:39 21.4°C 81% 18.0°C 23.3°C 2.6Kts E 0.0mm 1015.5hpa 0.0
19:37 21.4°C 81% 18.0°C 23.6°C 2.6Kts ENE 0.0mm 1015.5hpa 0.0
19:35 21.4°C 81% 18.0°C 23.6°C 1.7Kts ENE 0.0mm 1015.4hpa 0.0
19:33 21.4°C 81% 18.0°C 23.6°C 3.5Kts ENE 0.0mm 1015.5hpa 0.0
19:31 21.4°C 81% 18.0°C 23.6°C 0.0Kts ENE 0.0mm 1015.3hpa 0.0
19:29 21.4°C 81% 18.0°C 23.6°C 3.5Kts ENE 0.0mm 1015.4hpa 0.0
19:27 21.4°C 81% 18.0°C 23.3°C 1.7Kts E 0.0mm 1015.4hpa 0.0
19:25 21.5°C 81% 18.1°C 23.4°C 1.7Kts ENE 0.0mm 1015.3hpa 0.0
19:23 21.5°C 80% 17.9°C 23.3°C 2.6Kts ENE 0.0mm 1015.4hpa 0.0
19:21 21.5°C 80% 17.9°C 23.3°C 0.9Kts E 0.0mm 1015.3hpa 0.0
19:19 21.6°C 80% 18.0°C 23.5°C 1.7Kts ENE 0.0mm 1015.3hpa 0.0
19:17 21.6°C 80% 18.0°C 23.5°C 1.7Kts ENE 0.0mm 1015.3hpa 0.0
19:15 21.6°C 80% 18.0°C 23.5°C 2.6Kts ENE 0.0mm 1015.2hpa 0.0
19:13 21.6°C 80% 18.0°C 23.5°C 0.0Kts E 0.0mm 1015.2hpa 0.0
19:11 21.6°C 80% 18.0°C 23.5°C 2.6Kts E 0.0mm 1015.2hpa 0.0
19:09 21.7°C 79% 17.9°C 23.5°C 1.7Kts ESE 0.0mm 1015.2hpa 0.0
19:07 21.7°C 79% 17.9°C 23.5°C 4.3Kts ENE 0.0mm 1015.2hpa 0.0
19:05 21.7°C 79% 17.9°C 23.2°C 0.9Kts ENE 0.0mm 1015.2hpa 0.0
19:03 21.7°C 79% 17.9°C 23.2°C 5.2Kts ENE 0.0mm 1015.2hpa 0.0
19:01 21.7°C 79% 17.9°C 23.5°C 2.6Kts E 0.0mm 1015.1hpa 0.0
18:59 21.8°C 78% 17.8°C 23.6°C 7.8Kts ENE 0.0mm 1015.1hpa 0.0
18:57 21.8°C 78% 17.8°C 23.6°C 1.7Kts ENE 0.0mm 1015.2hpa 0.0
18:55 21.8°C 78% 17.8°C 23.9°C 2.6Kts E 0.0mm 1015.1hpa 0.0
18:53 21.8°C 77% 17.6°C 23.8°C 1.7Kts ENE 0.0mm 1015.1hpa 0.0
18:51 21.9°C 77% 17.7°C 23.9°C 0.0Kts ENE 0.0mm 1015.1hpa 0.0
18:49 21.9°C 76% 17.5°C 23.9°C 3.5Kts E 0.0mm 1015.1hpa 0.0
18:47 22.0°C 76% 17.6°C 24.0°C 2.6Kts E 0.0mm 1015.1hpa 0.0
18:45 22.1°C 76% 17.6°C 24.1°C 0.0Kts E 0.0mm 1015.1hpa 0.0
18:43 22.1°C 76% 17.7°C 24.1°C 2.6Kts ENE 0.0mm 1015.1hpa 0.0
18:41 22.2°C 76% 17.7°C 24.0°C 0.0Kts E 0.0mm 1015.1hpa 0.0
18:39 22.2°C 76% 17.7°C 24.0°C 0.9Kts ENE 0.0mm 1015.1hpa 0.0
18:37 22.2°C 75% 17.6°C 23.9°C 1.7Kts E 0.0mm 1015.1hpa 0.0
18:35 22.2°C 75% 17.6°C 23.5°C 1.7Kts ESE 0.0mm 1015.1hpa 0.0
18:33 22.3°C 75% 17.6°C 23.7°C 4.3Kts E 0.0mm 1015.0hpa 0.0
18:31 22.3°C 75% 17.7°C 23.7°C 2.6Kts ENE 0.0mm 1015.1hpa 0.0
18:29 22.4°C 75% 17.7°C 23.8°C 2.6Kts ENE 0.0mm 1015.1hpa 0.0
18:27 22.4°C 74% 17.5°C 24.1°C 3.5Kts ENE 0.0mm 1015.0hpa 0.0
18:25 22.4°C 74% 17.6°C 24.1°C 2.6Kts ENE 0.0mm 1015.0hpa 0.0
18:23 22.5°C 74% 17.6°C 24.2°C 6.1Kts ENE 0.0mm 1014.9hpa 0.0
18:21 22.6°C 74% 17.7°C 24.7°C 2.6Kts SE 0.0mm 1015.0hpa 0.0
18:19 22.6°C 74% 17.7°C 24.7°C 3.5Kts E 0.0mm 1015.0hpa 0.0
18:17 22.7°C 74% 17.8°C 24.5°C 2.6Kts ENE 0.0mm 1015.0hpa 0.0
18:15 22.7°C 73% 17.6°C 24.4°C 1.7Kts ENE 0.0mm 1015.0hpa 0.0
18:13 22.8°C 73% 17.7°C 24.9°C 2.6Kts ENE 0.0mm 1015.0hpa 0.0
18:11 22.8°C 73% 17.7°C 24.9°C 3.5Kts ENE 0.0mm 1015.0hpa 0.0
18:09 22.8°C 73% 17.7°C 24.9°C 6.1Kts E 0.0mm 1014.9hpa 0.0
18:07 22.9°C 73% 17.8°C 25.0°C 3.5Kts ENE 0.0mm 1014.9hpa 0.0
18:05 22.9°C 73% 17.8°C 25.0°C 0.9Kts ENE 0.0mm 1014.9hpa 0.0
18:03 22.9°C 73% 17.8°C 24.7°C 0.0Kts ENE 0.0mm 1014.8hpa 0.0
18:01 23.0°C 72% 17.7°C 24.7°C 1.7Kts E 0.0mm 1014.8hpa 0.0
17:59 23.1°C 72% 17.7°C 24.9°C 3.5Kts ENE 0.0mm 1014.8hpa 0.0
17:57 23.1°C 72% 17.7°C 24.9°C 1.7Kts E 0.0mm 1014.8hpa 0.0
17:55 23.1°C 72% 17.8°C 24.9°C 2.6Kts ENE 0.0mm 1014.7hpa 0.0
17:53 23.2°C 72% 17.8°C 25.0°C 2.6Kts E 0.0mm 1014.8hpa 0.0
17:51 23.2°C 72% 17.9°C 24.7°C 5.2Kts ENE 0.0mm 1014.7hpa 0.0
17:49 23.3°C 72% 17.9°C 24.8°C 6.1Kts ENE 0.0mm 1014.7hpa 0.0
17:47 23.3°C 71% 17.8°C 24.7°C 3.5Kts ESE 0.0mm 1014.7hpa 0.0
17:45 23.4°C 71% 17.9°C 24.9°C 3.5Kts ENE 0.0mm 1014.6hpa 0.0
17:43 23.4°C 71% 17.9°C 24.9°C 1.7Kts E 0.0mm 1014.5hpa 0.0
17:41 23.6°C 71% 18.0°C 25.5°C 7.0Kts E 0.0mm 1014.6hpa 0.0
17:39 23.6°C 70% 17.8°C 25.1°C 2.6Kts ENE 0.0mm 1014.5hpa 0.0
17:37 23.7°C 70% 17.9°C 25.2°C 0.9Kts E 0.0mm 1014.5hpa 0.0
17:35 23.7°C 70% 17.9°C 24.9°C 0.0Kts E 0.0mm 1014.5hpa 0.0
17:33 23.8°C 69% 17.7°C 24.9°C 6.1Kts ENE 0.0mm 1014.5hpa 0.0
17:31 23.8°C 69% 17.8°C 24.9°C 3.5Kts E 0.0mm 1014.4hpa 0.0
17:29 23.8°C 68% 17.6°C 24.9°C 3.5Kts E 0.0mm 1014.4hpa 0.0
17:27 23.9°C 68% 17.6°C 25.0°C 6.1Kts E 0.0mm 1014.5hpa 0.0
17:25 24.0°C 68% 17.7°C 25.1°C 7.8Kts ENE 0.0mm 1014.4hpa 0.0
17:23 24.0°C 69% 18.0°C 25.5°C 2.6Kts E 0.0mm 1014.5hpa 0.0
17:21 24.1°C 69% 18.0°C 25.7°C 7.8Kts ENE 0.0mm 1014.4hpa 0.0
17:19 24.1°C 69% 18.1°C 25.7°C 3.5Kts ESE 0.0mm 1014.4hpa 0.0
17:17 24.2°C 69% 18.1°C 25.8°C 2.6Kts E 0.0mm 1014.4hpa 0.0
17:15 24.2°C 69% 18.1°C 25.5°C 1.7Kts ENE 0.0mm 1014.4hpa 0.0
17:13 24.2°C 69% 18.1°C 25.5°C 1.7Kts SE 0.0mm 1014.4hpa 0.0
17:11 24.2°C 69% 18.2°C 25.2°C 2.6Kts ENE 0.0mm 1014.4hpa 0.0
17:09 24.3°C 68% 18.0°C 25.2°C 3.5Kts ENE 0.0mm 1014.4hpa 0.0
17:07 24.4°C 68% 18.1°C 25.4°C 2.6Kts ENE 0.0mm 1014.4hpa 0.0
17:05 24.5°C 68% 18.2°C 25.5°C 6.1Kts ENE 0.0mm 1014.4hpa 0.0
17:03 24.6°C 68% 18.3°C 26.0°C 4.3Kts ENE 0.0mm 1014.4hpa 0.0
17:01 24.7°C 68% 18.4°C 26.4°C 6.1Kts E 0.0mm 1014.3hpa 0.0
16:59 24.8°C 67% 18.2°C 26.4°C 6.1Kts ENE 0.0mm 1014.3hpa 0.0
16:57 24.8°C 67% 18.3°C 26.4°C 7.0Kts ENE 0.0mm 1014.3hpa 0.0
16:55 24.8°C 68% 18.5°C 26.9°C 3.5Kts E 0.0mm 1014.3hpa 0.0
16:53 24.8°C 68% 18.5°C 26.5°C 1.7Kts ENE 0.0mm 1014.3hpa 0.0
16:51 24.9°C 68% 18.6°C 26.7°C 3.5Kts ENE 0.0mm 1014.2hpa 0.0
16:49 24.9°C 67% 18.3°C 26.6°C 4.3Kts ENE 0.0mm 1014.3hpa 0.0
16:47 24.9°C 68% 18.6°C 26.7°C 1.7Kts E 0.0mm 1014.3hpa 0.6
16:45 24.9°C 68% 18.6°C 26.7°C 4.3Kts ENE 0.0mm 1014.3hpa 0.0
16:43 24.9°C 68% 18.6°C 26.4°C 4.3Kts ENE 0.0mm 1014.3hpa 0.0
16:41 25.0°C 68% 18.7°C 26.5°C 0.0Kts NE 0.0mm 1014.3hpa 0.0
16:39 25.1°C 67% 18.5°C 26.6°C 4.3Kts ENE 0.0mm 1014.3hpa 0.0
16:37 25.1°C 67% 18.6°C 26.3°C 4.3Kts ENE 0.0mm 1014.4hpa 0.0
16:35 25.2°C 67% 18.6°C 26.7°C 1.7Kts ESE 0.0mm 1014.3hpa 0.0
16:33 25.2°C 66% 18.4°C 26.6°C 5.2Kts ENE 0.0mm 1014.3hpa 0.0
16:31 25.3°C 66% 18.5°C 27.0°C 6.1Kts ENE 0.0mm 1014.3hpa 0.0
16:29 25.3°C 66% 18.5°C 27.0°C 2.6Kts ENE 0.0mm 1014.2hpa 0.0
16:27 25.4°C 66% 18.6°C 27.5°C 6.1Kts E 0.0mm 1014.3hpa 0.0
16:25 25.4°C 66% 18.6°C 27.5°C 0.9Kts NE 0.0mm 1014.3hpa 0.9
16:23 25.4°C 66% 18.6°C 27.2°C 0.9Kts E 0.0mm 1014.3hpa 0.0
16:21 25.4°C 66% 18.6°C 26.9°C 2.6Kts NW 0.0mm 1014.3hpa 0.0
16:19 25.4°C 66% 18.6°C 26.9°C 1.7Kts ENE 0.0mm 1014.3hpa 0.0
16:17 25.4°C 65% 18.4°C 27.1°C 3.5Kts ENE 0.0mm 1014.3hpa 0.0
16:15 25.5°C 65% 18.4°C 26.9°C 4.3Kts ENE 0.0mm 1014.3hpa 0.0
16:13 25.6°C 65% 18.5°C 27.1°C 7.0Kts ENE 0.0mm 1014.3hpa 0.0
16:11 25.6°C 65% 18.5°C 27.1°C 7.0Kts E 0.0mm 1014.2hpa 0.0
16:09 25.6°C 65% 18.5°C 27.1°C 0.9Kts ESE 0.0mm 1014.3hpa 0.0
16:07 25.6°C 63% 18.0°C 26.5°C 3.5Kts NE 0.0mm 1014.3hpa 0.0
16:05 25.7°C 64% 18.4°C 27.1°C 7.8Kts ENE 0.0mm 1014.3hpa 0.0
16:03 25.8°C 63% 18.2°C 27.1°C 4.3Kts ENE 0.0mm 1014.3hpa 0.0
16:01 25.8°C 63% 18.3°C 27.4°C 7.8Kts ENE 0.0mm 1014.3hpa 0.0
15:59 25.9°C 63% 18.3°C 27.6°C 0.9Kts E 0.0mm 1014.3hpa 0.0
15:57 25.9°C 64% 18.6°C 27.4°C 2.6Kts E 0.0mm 1014.4hpa 0.0
15:55 25.9°C 63% 18.3°C 27.3°C 1.7Kts N 0.0mm 1014.3hpa 1.3
15:53 25.9°C 63% 18.3°C 27.3°C 2.6Kts SSE 0.0mm 1014.3hpa 1.3
15:51 25.9°C 63% 18.4°C 27.3°C 2.6Kts E 0.0mm 1014.3hpa 0.0
15:49 26.0°C 63% 18.4°C 27.4°C 4.3Kts ENE 0.0mm 1014.3hpa 0.0
15:47 25.9°C 63% 18.4°C 27.3°C 7.0Kts E 0.0mm 1014.3hpa 1.4
15:45 25.9°C 63% 18.4°C 27.3°C 0.9Kts ENE 0.0mm 1014.3hpa 1.4
15:43 26.1°C 62% 18.2°C 27.1°C 0.9Kts E 0.0mm 1014.3hpa 1.5
15:41 26.2°C 62% 18.4°C 27.3°C 4.3Kts NE 0.0mm 1014.4hpa 1.9
15:39 26.3°C 63% 18.7°C 27.5°C 5.2Kts ENE 0.0mm 1014.3hpa 2.8
15:37 26.4°C 62% 18.5°C 27.6°C 6.1Kts ENE 0.0mm 1014.3hpa 3.0
15:35 26.5°C 63% 18.9°C 27.8°C 4.3Kts NE 0.0mm 1014.3hpa 3.1
15:33 26.5°C 62% 18.6°C 27.7°C 7.0Kts ESE 0.0mm 1014.3hpa 3.1
15:31 26.6°C 61% 18.4°C 27.7°C 3.5Kts E 0.0mm 1014.3hpa 3.2
15:29 26.6°C 62% 18.7°C 27.5°C 5.2Kts ESE 0.0mm 1014.3hpa 3.3
15:27 26.6°C 62% 18.7°C 27.5°C 1.7Kts ENE 0.0mm 1014.2hpa 3.4
15:25 26.7°C 61% 18.5°C 27.9°C 9.6Kts ENE 0.0mm 1014.2hpa 3.5
15:23 26.8°C 61% 18.6°C 28.0°C 6.1Kts E 0.0mm 1014.2hpa 3.5
15:21 26.9°C 60% 18.5°C 28.4°C 4.3Kts ENE 0.0mm 1014.3hpa 3.6
15:19 27.1°C 60% 18.7°C 28.9°C 9.6Kts E 0.0mm 1014.2hpa 2.1
15:17 27.1°C 61% 18.9°C 28.8°C 1.7Kts E 0.0mm 1014.2hpa 3.8
15:15 27.0°C 61% 18.8°C 28.6°C 3.5Kts E 0.0mm 1014.2hpa 3.9
15:13 26.9°C 61% 18.8°C 28.1°C 2.6Kts ENE 0.0mm 1014.2hpa 3.9
15:11 26.9°C 61% 18.8°C 28.1°C 0.9Kts ESE 0.0mm 1014.2hpa 2.3
15:09 27.1°C 60% 18.6°C 28.3°C 6.1Kts E 0.0mm 1014.2hpa 4.1
15:07 27.1°C 61% 18.9°C 28.8°C 6.1Kts ESE 0.0mm 1014.2hpa 4.2
15:05 27.1°C 60% 18.7°C 28.6°C 8.7Kts E 0.0mm 1014.2hpa 4.3
15:03 27.1°C 60% 18.6°C 28.3°C 3.5Kts ENE 0.0mm 1014.1hpa 4.4
15:01 27.2°C 60% 18.7°C 28.5°C 3.5Kts ENE 0.0mm 1014.2hpa 4.4
14:59 27.1°C 60% 18.7°C 28.3°C 2.6Kts ESE 0.0mm 1014.2hpa 4.5
14:57 27.1°C 60% 18.6°C 28.3°C 5.2Kts ESE 0.0mm 1014.2hpa 4.6
14:55 27.1°C 58% 18.1°C 28.1°C 1.7Kts E 0.0mm 1014.2hpa 4.7
14:53 27.4°C 58% 18.4°C 28.8°C 7.8Kts E 0.0mm 1014.2hpa 4.8
14:51 27.8°C 57% 18.5°C 29.3°C 7.0Kts ENE 0.0mm 1014.2hpa 4.9
14:49 27.8°C 58% 18.8°C 29.4°C 3.5Kts ESE 0.0mm 1014.2hpa 5.1
14:47 27.7°C 57% 18.4°C 28.8°C 3.5Kts ENE 0.0mm 1014.2hpa 5.1
14:45 27.3°C 60% 18.9°C 28.6°C 0.0Kts ESE 0.0mm 1014.2hpa 5.2
14:43 27.0°C 60% 18.6°C 28.2°C 7.8Kts ESE 0.0mm 1014.3hpa 5.3
14:41 26.9°C 59% 18.3°C 27.6°C 4.3Kts ENE 0.0mm 1014.3hpa 5.4
14:39 27.1°C 57% 17.9°C 27.6°C 9.6Kts ENE 0.0mm 1014.3hpa 5.5
14:37 27.3°C 59% 18.6°C 28.5°C 4.3Kts NE 0.0mm 1014.4hpa 5.6
14:35 27.3°C 58% 18.3°C 28.4°C 1.7Kts NE 0.0mm 1014.4hpa 5.7
14:33 27.7°C 57% 18.4°C 28.8°C 8.7Kts ENE 0.0mm 1014.5hpa 5.7
14:31 27.8°C 56% 18.2°C 29.1°C 5.2Kts NE 0.0mm 1014.4hpa 5.8
14:29 27.8°C 57% 18.5°C 29.6°C 0.0Kts ENE 0.0mm 1014.4hpa 5.9
14:27 27.7°C 57% 18.4°C 29.4°C 0.9Kts ESE 0.0mm 1014.4hpa 5.9
14:25 27.7°C 56% 18.1°C 29.0°C 7.8Kts ENE 0.0mm 1014.5hpa 6.1
14:23 27.6°C 58% 18.5°C 28.8°C 0.9Kts NNE 0.0mm 1014.5hpa 6.2
14:21 27.4°C 57% 18.1°C 28.1°C 2.6Kts NE 0.0mm 1014.6hpa 6.3
14:19 27.3°C 58% 18.3°C 28.0°C 4.3Kts NNE 0.0mm 1014.5hpa 6.5
14:17 27.5°C 57% 18.2°C 28.2°C 6.1Kts ESE 0.0mm 1014.6hpa 6.6
14:15 27.6°C 56% 18.0°C 28.5°C 8.7Kts NNE 0.0mm 1014.5hpa 6.6
14:13 28.0°C 55% 18.1°C 29.0°C 3.5Kts NE 0.0mm 1014.6hpa 6.7
14:11 28.0°C 56% 18.4°C 29.4°C 7.0Kts ENE 0.0mm 1014.6hpa 6.8
14:09 27.8°C 56% 18.2°C 29.1°C 7.0Kts E 0.0mm 1014.6hpa 7.0
14:07 27.7°C 56% 18.1°C 28.7°C 5.2Kts E 0.0mm 1014.7hpa 7.3
14:05 27.6°C 58% 18.5°C 28.8°C 2.6Kts ENE 0.0mm 1014.7hpa 6.7
14:03 27.6°C 56% 18.0°C 28.9°C 8.7Kts E 0.0mm 1014.7hpa 6.9
14:01 27.7°C 55% 17.9°C 28.9°C 2.6Kts E 0.0mm 1014.7hpa 3.6
13:59 27.8°C 55% 17.9°C 29.0°C 2.6Kts SE 0.0mm 1014.7hpa 6.1
13:57 28.2°C 53% 17.7°C 29.6°C 8.7Kts ENE 0.0mm 1014.7hpa 7.7
13:55 28.4°C 53% 17.9°C 29.9°C 2.6Kts NE 0.0mm 1014.7hpa 7.3
13:53 28.4°C 54% 18.2°C 29.7°C 2.6Kts NE 0.0mm 1014.7hpa 7.7
13:51 28.1°C 55% 18.2°C 29.4°C 2.6Kts ENE 0.0mm 1014.7hpa 7.7
13:49 27.8°C 55% 17.9°C 29.0°C 3.5Kts NNE 0.0mm 1014.7hpa 7.8
13:47 27.9°C 54% 17.8°C 29.0°C 1.7Kts ENE 0.0mm 1014.8hpa 8.1
13:45 27.9°C 55% 18.1°C 29.2°C 8.7Kts E 0.0mm 1014.8hpa 5.9
13:43 27.9°C 55% 18.0°C 29.2°C 3.5Kts E 0.0mm 1014.8hpa 8.3
13:41 28.1°C 54% 17.9°C 29.3°C 2.6Kts ENE 0.0mm 1014.9hpa 3.9
13:39 27.9°C 56% 18.3°C 29.0°C 0.0Kts E 0.0mm 1014.9hpa 4.7
13:37 27.9°C 55% 18.1°C 28.8°C 9.6Kts E 0.0mm 1014.8hpa 8.6
13:35 28.0°C 56% 18.4°C 29.1°C 11.3Kts ENE 0.0mm 1014.9hpa 8.6
13:33 28.1°C 54% 17.9°C 28.7°C 0.0Kts ENE 0.0mm 1014.9hpa 8.6
13:31 28.1°C 56% 18.5°C 28.9°C 6.1Kts ENE 0.0mm 1014.9hpa 8.6
13:29 28.2°C 54% 18.0°C 29.1°C 8.7Kts ENE 0.0mm 1014.9hpa 8.7
13:27 28.2°C 55% 18.3°C 29.3°C 5.2Kts ESE 0.0mm 1014.9hpa 8.8
13:25 28.2°C 54% 18.0°C 29.5°C 7.8Kts NE 0.0mm 1014.9hpa 8.8
13:23 28.1°C 55% 18.2°C 29.4°C 2.6Kts E 0.0mm 1014.9hpa 8.9
13:21 27.9°C 54% 17.7°C 28.7°C 0.9Kts ESE 0.0mm 1014.9hpa 9.0
13:19 27.9°C 53% 17.4°C 28.6°C 1.7Kts ENE 0.0mm 1014.8hpa 9.0
13:17 28.1°C 56% 18.5°C 29.2°C 1.7Kts E 0.0mm 1015.0hpa 9.1
13:15 27.8°C 56% 18.2°C 28.8°C 2.6Kts ENE 0.0mm 1015.0hpa 9.1
13:13 27.9°C 55% 18.1°C 28.5°C 4.3Kts ENE 0.0mm 1015.1hpa 9.2
13:11 27.9°C 55% 18.1°C 28.5°C 5.2Kts NE 0.0mm 1015.0hpa 9.3
13:09 27.7°C 57% 18.4°C 28.5°C 2.6Kts ENE 0.0mm 1015.0hpa 9.3
13:07 27.2°C 57% 18.0°C 27.8°C 0.0Kts ENE 0.0mm 1015.1hpa 9.4
13:05 27.2°C 57% 17.9°C 27.8°C 1.7Kts ENE 0.0mm 1015.1hpa 9.5
13:03 27.3°C 55% 17.4°C 28.0°C 10.4Kts ENE 0.0mm 1015.2hpa 9.6
13:01 27.4°C 55% 17.6°C 28.5°C 3.5Kts ENE 0.0mm 1015.2hpa 9.7
12:59 27.4°C 56% 17.9°C 28.6°C 7.8Kts ENE 0.0mm 1015.2hpa 4.8
12:57 27.4°C 56% 17.8°C 28.6°C 7.8Kts E 0.0mm 1015.2hpa 10.0
12:55 27.4°C 55% 17.6°C 28.5°C 2.6Kts ESE 0.0mm 1015.3hpa 9.8
12:53 27.6°C 56% 18.0°C 28.9°C 2.6Kts ENE 0.0mm 1015.4hpa 9.8
12:51 27.5°C 56% 17.9°C 28.7°C 6.1Kts ESE 0.0mm 1015.3hpa 9.9
12:49 27.6°C 56% 18.0°C 28.9°C 6.1Kts ENE 0.0mm 1015.3hpa 9.9
12:47 28.2°C 54% 18.0°C 29.5°C 11.3Kts ENE 0.0mm 1015.4hpa 10.1
12:45 28.4°C 53% 17.9°C 29.6°C 3.5Kts SSE 0.0mm 1015.4hpa 10.0
12:43 28.2°C 53% 17.7°C 29.0°C 4.3Kts ENE 0.0mm 1015.5hpa 10.0
12:41 27.4°C 58% 18.4°C 28.5°C 1.7Kts E 0.0mm 1015.5hpa 10.2
12:39 26.8°C 59% 18.1°C 27.4°C 2.6Kts E 0.0mm 1015.5hpa 10.1
12:37 26.8°C 56% 17.3°C 27.4°C 7.8Kts E 0.0mm 1015.5hpa 10.2
12:35 27.2°C 55% 17.4°C 27.9°C 5.2Kts ENE 0.0mm 1015.5hpa 10.0
12:33 27.6°C 55% 17.8°C 28.4°C 6.1Kts E 0.0mm 1015.5hpa 5.1
12:31 27.6°C 57% 18.3°C 28.7°C 4.3Kts ENE 0.0mm 1015.6hpa 8.6
12:29 27.4°C 58% 18.4°C 28.5°C 5.2Kts E 0.0mm 1015.5hpa 10.4
12:27 27.4°C 57% 18.1°C 28.4°C 3.5Kts NNW 0.0mm 1015.6hpa 4.3
12:25 27.4°C 59% 18.7°C 28.6°C 5.2Kts NE 0.0mm 1015.6hpa 8.3
12:23 27.2°C 58% 18.2°C 28.2°C 6.1Kts E 0.0mm 1015.6hpa 10.7
12:21 27.3°C 55% 17.4°C 28.0°C 6.1Kts E 0.0mm 1015.7hpa 10.6
12:19 27.7°C 57% 18.4°C 29.1°C 8.7Kts ENE 0.0mm 1015.7hpa 10.6
12:17 27.8°C 56% 18.2°C 29.1°C 3.5Kts ENE 0.0mm 1015.6hpa 5.4
12:15 27.6°C 58% 18.6°C 29.1°C 4.3Kts NE 0.0mm 1015.7hpa 10.7
12:13 27.7°C 55% 17.9°C 28.6°C 2.6Kts NE 0.0mm 1015.7hpa 10.6
12:11 27.9°C 57% 18.6°C 29.1°C 2.6Kts NE 0.0mm 1015.7hpa 10.4
12:09 27.7°C 56% 18.1°C 28.7°C 3.5Kts NE 0.0mm 1015.8hpa 10.4
12:07 27.7°C 59% 18.9°C 29.4°C 2.6Kts ESE 0.0mm 1015.8hpa 10.5
12:05 27.4°C 57% 18.1°C 28.7°C 4.3Kts NE 0.0mm 1015.7hpa 10.5
12:03 27.8°C 57% 18.5°C 29.3°C 8.7Kts ENE 0.0mm 1015.9hpa 10.4
12:01 27.9°C 59% 19.2°C 29.7°C 2.6Kts E 0.0mm 1015.9hpa 10.4
11:59 27.2°C 61% 19.0°C 28.9°C 6.1Kts E 0.0mm 1015.8hpa 10.5
11:57 26.6°C 61% 18.5°C 28.0°C 2.6Kts ENE 0.0mm 1015.9hpa 10.5
11:55 26.6°C 60% 18.2°C 27.6°C 7.0Kts E 0.0mm 1016.0hpa 10.6
11:53 26.7°C 60% 18.3°C 28.1°C 7.0Kts E 0.0mm 1016.0hpa 4.2
11:51 26.9°C 59% 18.3°C 28.5°C 2.6Kts ENE 0.0mm 1016.0hpa 10.0
11:49 27.3°C 58% 18.3°C 29.0°C 3.5Kts ESE 0.0mm 1016.1hpa 10.7
11:47 27.3°C 58% 18.3°C 29.0°C 2.6Kts ESE 0.0mm 1016.1hpa 10.5
11:45 27.2°C 61% 19.0°C 28.9°C 4.3Kts NE 0.0mm 1016.1hpa 10.6
11:43 26.4°C 63% 18.8°C 28.0°C 2.6Kts ENE 0.0mm 1016.1hpa 10.5
11:41 26.3°C 61% 18.2°C 27.6°C 3.5Kts NNW 0.0mm 1016.1hpa 10.6
11:39 26.3°C 61% 18.2°C 27.6°C 3.5Kts ESE 0.0mm 1016.2hpa 10.4
11:37 26.1°C 60% 17.7°C 27.2°C 5.2Kts ESE 0.0mm 1016.2hpa 10.5
11:35 26.8°C 58% 17.8°C 28.3°C 6.1Kts ENE 0.0mm 1016.3hpa 4.3
11:33 27.3°C 57% 18.0°C 28.6°C 7.8Kts NE 0.0mm 1016.3hpa 4.0
11:31 27.3°C 60% 18.8°C 28.9°C 2.6Kts ENE 0.0mm 1016.3hpa 4.2
11:29 26.8°C 61% 18.7°C 28.3°C 3.5Kts E 0.0mm 1016.3hpa 10.1
11:27 26.8°C 60% 18.4°C 28.2°C 6.1Kts ENE 0.0mm 1016.3hpa 10.2
11:25 26.7°C 59% 18.0°C 28.0°C 2.6Kts NE 0.0mm 1016.3hpa 10.3
11:23 26.6°C 60% 18.2°C 28.2°C 4.3Kts SSW 0.0mm 1016.3hpa 10.7
11:21 26.3°C 60% 17.9°C 27.8°C 2.6Kts ENE 0.0mm 1016.3hpa 10.6
11:19 26.3°C 58% 17.4°C 27.3°C 0.0Kts ESE 0.0mm 1016.4hpa 4.4
11:17 26.6°C 58% 17.6°C 27.7°C 5.2Kts ENE 0.0mm 1016.4hpa 4.1
11:15 26.8°C 59% 18.1°C 27.8°C 1.7Kts NE 0.0mm 1016.3hpa 4.6
11:13 27.0°C 58% 18.0°C 27.9°C 3.5Kts ENE 0.0mm 1016.5hpa 9.9
11:11 27.1°C 59% 18.4°C 28.5°C 6.1Kts ESE 0.0mm 1016.5hpa 10.1
11:09 27.2°C 58% 18.2°C 28.5°C 2.6Kts E 0.0mm 1016.5hpa 10.2
11:07 27.0°C 59% 18.3°C 28.4°C 9.6Kts ENE 0.0mm 1016.5hpa 10.2
11:05 26.8°C 61% 18.6°C 28.3°C 7.0Kts ENE 0.0mm 1016.5hpa 10.2
11:03 26.5°C 60% 18.1°C 27.8°C 2.6Kts ENE 0.0mm 1016.6hpa 4.7
11:01 26.3°C 60% 17.9°C 27.5°C 3.5Kts ESE 0.0mm 1016.5hpa 9.8
10:59 26.2°C 61% 18.1°C 27.5°C 2.6Kts N 0.0mm 1016.6hpa 9.6
10:57 26.3°C 61% 18.2°C 27.9°C 4.3Kts NNE 0.0mm 1016.7hpa 9.6
10:55 26.2°C 60% 17.8°C 28.0°C 7.0Kts E 0.0mm 1016.7hpa 9.7
10:53 26.2°C 60% 17.8°C 28.0°C 3.5Kts ENE 0.0mm 1016.7hpa 4.3
10:51 26.3°C 59% 17.6°C 28.0°C 0.9Kts SE 0.0mm 1016.7hpa 5.3
10:49 26.4°C 59% 17.8°C 27.8°C 2.6Kts E 0.0mm 1016.7hpa 3.6
10:47 26.6°C 59% 17.9°C 28.1°C 1.7Kts E 0.0mm 1016.7hpa 3.5
10:45 26.7°C 59% 18.0°C 28.2°C 1.7Kts NE 0.0mm 1016.8hpa 3.7
10:43 26.6°C 61% 18.4°C 28.3°C 6.1Kts ESE 0.0mm 1016.8hpa 9.3
10:41 26.2°C 62% 18.4°C 27.9°C 2.6Kts E 0.0mm 1016.8hpa 9.4
10:39 25.9°C 62% 18.1°C 27.5°C 2.6Kts ENE 0.0mm 1016.8hpa 9.5
10:37 25.8°C 62% 17.9°C 27.3°C 0.9Kts ESE 0.0mm 1016.8hpa 9.7
10:35 25.7°C 63% 18.1°C 27.3°C 7.0Kts ENE 0.0mm 1016.8hpa 6.3
10:33 25.5°C 64% 18.2°C 27.1°C 0.0Kts E 0.0mm 1016.8hpa 4.0
10:31 25.3°C 64% 18.0°C 26.8°C 5.2Kts ESE 0.0mm 1016.8hpa 9.0
10:29 25.2°C 64% 17.9°C 26.4°C 11.3Kts ESE 0.0mm 1016.8hpa 6.3
10:27 25.2°C 64% 17.9°C 26.4°C 0.9Kts ENE 0.0mm 1016.8hpa 4.9
10:25 25.3°C 63% 17.8°C 26.4°C 0.9Kts ENE 0.0mm 1016.9hpa 3.4
10:23 25.6°C 63% 18.0°C 26.9°C 4.3Kts SE 0.0mm 1016.9hpa 3.4
10:21 25.8°C 63% 18.2°C 27.1°C 6.1Kts E 0.0mm 1016.9hpa 3.8
10:19 25.8°C 63% 18.2°C 27.4°C 6.1Kts NE 0.0mm 1016.9hpa 8.8
10:17 25.8°C 62% 18.0°C 27.3°C 3.5Kts E 0.0mm 1017.0hpa 3.7
10:15 26.0°C 61% 17.9°C 27.2°C 1.7Kts E 0.0mm 1016.9hpa 3.0
10:13 26.1°C 63% 18.5°C 27.9°C 3.5Kts ESE 0.0mm 1017.0hpa 3.8
10:11 25.9°C 62% 18.1°C 27.5°C 2.6Kts ESE 0.0mm 1017.0hpa 7.8
10:09 26.2°C 60% 17.8°C 27.7°C 6.1Kts ESE 0.0mm 1016.9hpa 4.0
10:07 26.3°C 60% 17.9°C 27.8°C 3.5Kts ENE 0.0mm 1017.1hpa 7.9
10:05 26.2°C 62% 18.4°C 28.2°C 1.7Kts NNE 0.0mm 1017.0hpa 7.8
10:03 26.0°C 63% 18.4°C 28.0°C 2.6Kts ENE 0.0mm 1017.0hpa 5.0
10:01 25.8°C 63% 18.3°C 27.4°C 1.7Kts ESE 0.0mm 1017.1hpa 7.6
09:59 25.7°C 63% 18.1°C 27.3°C 4.3Kts NE 0.0mm 1017.2hpa 7.3
09:57 25.4°C 65% 18.4°C 27.1°C 1.7Kts ESE 0.0mm 1017.1hpa 7.3
09:55 25.3°C 66% 18.5°C 26.8°C 2.6Kts ENE 0.0mm 1017.2hpa 6.6
09:53 25.2°C 64% 17.9°C 26.7°C 5.2Kts E 0.0mm 1017.2hpa 7.4
09:51 25.4°C 63% 17.9°C 26.9°C 3.5Kts ENE 0.0mm 1017.2hpa 6.7
09:49 25.6°C 63% 18.0°C 27.1°C 5.2Kts ENE 0.0mm 1017.2hpa 4.9
09:47 25.6°C 64% 18.2°C 27.6°C 6.1Kts E 0.0mm 1017.3hpa 6.3
09:45 25.4°C 65% 18.3°C 27.4°C 1.7Kts WNW 0.0mm 1017.3hpa 6.7
09:43 25.2°C 65% 18.2°C 27.1°C 1.7Kts E 0.0mm 1017.3hpa 6.8
09:41 25.2°C 64% 17.9°C 26.7°C 3.5Kts NNW 0.0mm 1017.3hpa 6.6
09:39 25.2°C 65% 18.1°C 27.1°C 3.5Kts ENE 0.0mm 1017.3hpa 6.7
09:37 25.0°C 66% 18.2°C 26.6°C 0.0Kts E 0.0mm 1017.3hpa 6.5
09:35 24.9°C 65% 17.9°C 26.4°C 2.6Kts ENE 0.0mm 1017.3hpa 6.5
09:33 24.8°C 66% 18.0°C 26.3°C 5.2Kts ESE 0.0mm 1017.3hpa 6.4
09:31 24.7°C 67% 18.1°C 26.3°C 5.2Kts ESE 0.0mm 1017.3hpa 3.3
09:29 24.7°C 66% 17.9°C 26.2°C 2.6Kts ESE 0.0mm 1017.3hpa 4.0
09:27 24.7°C 66% 17.9°C 26.2°C 8.7Kts ENE 0.0mm 1017.3hpa 3.4
09:25 24.7°C 67% 18.1°C 26.6°C 0.0Kts NNW 0.0mm 1017.3hpa 4.9
09:23 24.6°C 66% 17.8°C 26.4°C 3.5Kts E 0.0mm 1017.3hpa 3.3
09:21 24.7°C 66% 17.9°C 26.5°C 1.7Kts ESE 0.0mm 1017.4hpa 2.8
09:19 24.6°C 65% 17.6°C 26.0°C 1.7Kts E 0.0mm 1017.3hpa 3.5
09:17 24.5°C 66% 17.7°C 25.9°C 3.5Kts E 0.0mm 1017.4hpa 5.3
09:15 24.5°C 66% 17.7°C 25.9°C 1.7Kts ESE 0.0mm 1017.3hpa 3.1
09:13 24.6°C 65% 17.5°C 26.0°C 7.0Kts E 0.0mm 1017.4hpa 3.2
09:11 24.7°C 65% 17.6°C 26.4°C 1.7Kts ESE 0.0mm 1017.3hpa 2.9
09:09 24.8°C 65% 17.8°C 26.2°C 4.3Kts NE 0.0mm 1017.3hpa 5.1
09:07 24.8°C 65% 17.8°C 26.2°C 3.5Kts ENE 0.0mm 1017.3hpa 2.9
09:05 24.8°C 65% 17.8°C 26.6°C 0.9Kts ESE 0.0mm 1017.3hpa 3.6
09:03 24.7°C 66% 17.9°C 26.2°C 1.7Kts ENE 0.0mm 1017.4hpa 5.1
09:01 24.8°C 65% 17.8°C 26.2°C 1.7Kts ESE 0.0mm 1017.4hpa 2.7
08:59 24.9°C 65% 17.9°C 26.7°C 4.3Kts SSE 0.0mm 1017.3hpa 3.4
08:57 25.0°C 66% 18.2°C 26.9°C 7.0Kts E 0.0mm 1017.3hpa 2.9
08:55 25.0°C 65% 18.0°C 26.8°C 1.7Kts SSE 0.0mm 1017.3hpa 4.6
08:53 25.1°C 66% 18.3°C 27.4°C 4.3Kts NE 0.0mm 1017.2hpa 2.7
08:51 24.9°C 67% 18.3°C 26.9°C 2.6Kts ESE 0.0mm 1017.3hpa 3.4
08:49 24.7°C 66% 17.9°C 26.5°C 0.9Kts NE 0.0mm 1017.3hpa 4.2
08:47 24.6°C 67% 18.0°C 26.5°C 1.7Kts SE 0.0mm 1017.3hpa 4.1
08:45 24.4°C 67% 17.9°C 26.2°C 1.7Kts ENE 0.0mm 1017.2hpa 3.9
08:43 24.2°C 68% 17.9°C 25.7°C 0.0Kts SE 0.0mm 1017.2hpa 3.4
08:41 23.9°C 70% 18.1°C 25.8°C 3.5Kts E 0.0mm 1017.2hpa 3.8
08:39 23.7°C 68% 17.4°C 25.0°C 0.9Kts ENE 0.0mm 1017.2hpa 3.3
08:37 23.6°C 69% 17.6°C 25.0°C 2.6Kts NE 0.0mm 1017.2hpa 3.6
08:35 23.5°C 69% 17.5°C 24.8°C 1.7Kts ENE 0.0mm 1017.2hpa 2.7
08:33 23.4°C 71% 17.8°C 24.9°C 2.6Kts E 0.0mm 1017.2hpa 2.9
08:31 23.4°C 71% 17.8°C 25.2°C 5.2Kts ESE 0.0mm 1017.2hpa 2.6
08:29 23.4°C 71% 17.9°C 25.2°C 0.9Kts ENE 0.0mm 1017.2hpa 2.8
08:27 23.5°C 72% 18.2°C 25.4°C 4.3Kts NE 0.0mm 1017.1hpa 2.3
08:25 23.4°C 71% 17.9°C 25.2°C 3.5Kts E 0.0mm 1017.2hpa 2.2
08:23 23.4°C 72% 18.1°C 25.0°C 2.6Kts SE 0.0mm 1017.2hpa 2.2
08:21 23.3°C 73% 18.2°C 24.9°C 0.0Kts NE 0.0mm 1017.2hpa 2.2
08:19 23.3°C 72% 17.9°C 24.8°C 5.2Kts E 0.0mm 1017.1hpa 2.6
08:17 23.3°C 71% 17.8°C 24.4°C 3.5Kts NNE 0.0mm 1017.2hpa 2.0
08:15 23.5°C 70% 17.7°C 24.6°C 3.5Kts SSE 0.0mm 1017.1hpa 1.7
08:13 23.6°C 69% 17.6°C 24.7°C 5.2Kts ESE 0.0mm 1017.1hpa 1.8
08:11 23.7°C 71% 18.1°C 24.7°C 1.7Kts ESE 0.0mm 1017.1hpa 2.1
08:09 23.6°C 71% 18.0°C 24.5°C 5.2Kts E 0.0mm 1017.1hpa 1.7
08:07 23.6°C 71% 18.0°C 24.9°C 4.3Kts ENE 0.0mm 1017.1hpa 2.3
08:05 23.7°C 70% 17.9°C 24.9°C 0.9Kts ESE 0.0mm 1017.0hpa 2.2
08:03 23.7°C 70% 17.9°C 24.9°C 2.6Kts ENE 0.0mm 1017.0hpa 2.2
08:01 23.8°C 70% 18.0°C 25.3°C 5.2Kts NE 0.0mm 1017.0hpa 2.1
07:59 23.9°C 71% 18.4°C 25.6°C 2.6Kts E 0.0mm 1017.0hpa 2.0
07:57 23.9°C 70% 18.1°C 25.5°C 1.7Kts ENE 0.0mm 1016.9hpa 2.0
07:55 24.1°C 71% 18.5°C 26.2°C 4.3Kts ENE 0.0mm 1017.0hpa 1.9
07:53 24.1°C 71% 18.5°C 26.2°C 5.2Kts E 0.0mm 1016.9hpa 1.9
07:51 23.9°C 71% 18.4°C 25.9°C 1.7Kts NE 0.0mm 1016.9hpa 1.8
07:49 23.9°C 72% 18.5°C 26.0°C 0.9Kts E 0.0mm 1017.0hpa 1.7
07:47 23.8°C 71% 18.3°C 25.8°C 1.7Kts E 0.0mm 1016.9hpa 1.7
07:45 23.8°C 70% 18.0°C 25.7°C 0.0Kts NE 0.0mm 1016.9hpa 1.6
07:43 23.9°C 71% 18.3°C 26.2°C 2.6Kts ESE 0.0mm 1016.9hpa 1.6
07:41 23.8°C 71% 18.3°C 26.1°C 0.0Kts ESE 0.0mm 1016.9hpa 1.5
07:39 23.8°C 71% 18.2°C 26.4°C 0.9Kts E 0.0mm 1016.8hpa 1.5
07:37 23.7°C 71% 18.1°C 26.2°C 1.7Kts ENE 0.0mm 1016.9hpa 1.4
07:35 23.7°C 71% 18.1°C 26.2°C 2.6Kts NE 0.0mm 1016.8hpa 1.3
07:33 23.6°C 71% 18.0°C 26.1°C 0.9Kts ENE 0.0mm 1016.8hpa 1.3
07:31 23.6°C 71% 18.0°C 25.8°C 0.0Kts E 0.0mm 1016.8hpa 1.3
07:29 23.7°C 71% 18.1°C 25.9°C 2.6Kts NE 0.0mm 1016.7hpa 1.2
07:27 23.7°C 71% 18.1°C 25.9°C 2.6Kts ENE 0.0mm 1016.8hpa 1.2
07:25 23.6°C 72% 18.2°C 25.9°C 2.6Kts ESE 0.0mm 1016.7hpa 1.1
07:23 23.4°C 72% 18.1°C 25.6°C 0.0Kts ENE 0.0mm 1016.7hpa 1.1
07:21 23.4°C 72% 18.1°C 25.6°C 4.3Kts E 0.0mm 1016.7hpa 1.0
07:19 23.3°C 72% 17.9°C 25.8°C 0.9Kts ENE 0.0mm 1016.7hpa 1.0
07:17 23.1°C 74% 18.2°C 25.7°C 4.3Kts SSE 0.0mm 1016.7hpa 0.9
07:15 22.9°C 75% 18.3°C 25.2°C 1.7Kts E 0.0mm 1016.6hpa 0.9
07:13 22.8°C 75% 18.1°C 25.0°C 0.0Kts E 0.0mm 1016.6hpa 0.9
07:11 22.6°C 76% 18.1°C 24.8°C 0.0Kts ESE 0.0mm 1016.6hpa 0.8
07:09 22.4°C 75% 17.7°C 24.5°C 0.0Kts E 0.0mm 1016.6hpa 0.8
07:07 22.3°C 76% 17.8°C 24.4°C 0.9Kts ENE 0.0mm 1016.5hpa 0.7
07:05 22.2°C 77% 17.9°C 24.4°C 1.7Kts E 0.0mm 1016.5hpa 0.7
07:03 22.0°C 77% 17.8°C 24.1°C 1.7Kts SE 0.0mm 1016.5hpa 0.7
07:01 21.8°C 78% 17.8°C 23.9°C 0.9Kts E 0.0mm 1016.5hpa 0.6
06:59 21.7°C 78% 17.7°C 23.8°C 0.9Kts E 0.0mm 1016.4hpa 0.6
06:57 21.6°C 78% 17.6°C 23.3°C 2.6Kts E 0.0mm 1016.5hpa 0.6
06:55 21.4°C 79% 17.6°C 23.1°C 0.9Kts NE 0.0mm 1016.4hpa 0.6
06:53 21.3°C 79% 17.5°C 23.3°C 2.6Kts NE 0.0mm 1016.5hpa 0.5
06:51 21.2°C 79% 17.4°C 23.1°C 2.6Kts ENE 0.0mm 1016.5hpa 0.5
06:49 21.2°C 79% 17.4°C 23.1°C 1.7Kts E 0.0mm 1016.4hpa 0.0
06:47 21.1°C 79% 17.3°C 23.3°C 0.0Kts ESE 0.0mm 1016.5hpa 0.0
06:45 20.9°C 80% 17.4°C 23.1°C 2.6Kts E 0.0mm 1016.5hpa 0.0
06:43 20.8°C 80% 17.3°C 22.9°C 0.0Kts ESE 0.0mm 1016.4hpa 0.0
06:41 20.8°C 80% 17.2°C 22.9°C 0.9Kts ESE 0.0mm 1016.4hpa 0.0
06:39 20.7°C 80% 17.1°C 22.8°C 2.6Kts ESE 0.0mm 1016.4hpa 0.0
06:37 20.6°C 81% 17.2°C 22.7°C 0.0Kts SE 0.0mm 1016.4hpa 0.0
06:35 20.6°C 80% 17.0°C 22.4°C 0.0Kts SE 0.0mm 1016.4hpa 0.0
06:33 20.4°C 81% 17.1°C 22.5°C 2.6Kts ESE 0.0mm 1016.4hpa 0.0
06:31 20.4°C 81% 17.0°C 22.5°C 0.9Kts ESE 0.0mm 1016.4hpa 0.0
06:29 20.3°C 81% 16.9°C 22.3°C 0.9Kts ENE 0.0mm 1016.4hpa 0.0
06:27 20.2°C 81% 16.8°C 22.2°C 1.7Kts E 0.0mm 1016.4hpa 0.0
06:25 20.1°C 81% 16.7°C 22.4°C 2.6Kts E 0.0mm 1016.3hpa 0.0
06:23 19.9°C 81% 16.6°C 22.1°C 0.0Kts ENE 0.0mm 1016.2hpa 0.0
06:21 19.8°C 81% 16.5°C 22.0°C 0.0Kts NNW 0.0mm 1016.2hpa 0.0
06:19 19.8°C 81% 16.4°C 21.6°C 0.0Kts NNW 0.0mm 1016.1hpa 0.0
06:17 19.7°C 82% 16.6°C 21.6°C 0.0Kts SE 0.0mm 1016.1hpa 0.0
06:15 19.6°C 82% 16.5°C 21.4°C 0.0Kts SE 0.0mm 1016.1hpa 0.0
06:13 19.5°C 82% 16.3°C 21.3°C 0.0Kts ESE 0.0mm 1016.1hpa 0.0
06:11 19.4°C 82% 16.2°C 21.2°C 0.9Kts ESE 0.0mm 1016.0hpa 0.0
06:09 19.3°C 82% 16.1°C 21.0°C 0.0Kts ESE 0.0mm 1016.0hpa 0.0
06:07 19.1°C 83% 16.2°C 20.8°C 0.9Kts ESE 0.0mm 1016.0hpa 0.0
06:05 19.0°C 83% 16.0°C 20.7°C 0.0Kts ESE 0.0mm 1015.9hpa 0.0
06:03 18.8°C 83% 15.9°C 20.4°C 0.9Kts ESE 0.0mm 1015.9hpa 0.0
06:01 18.7°C 84% 15.9°C 20.3°C 1.7Kts ESE 0.0mm 1015.9hpa 0.0
05:59 18.6°C 84% 15.9°C 20.2°C 0.9Kts E 0.0mm 1015.8hpa 0.0
05:57 18.5°C 84% 15.7°C 20.1°C 1.7Kts NE 0.0mm 1015.8hpa 0.0
05:55 18.5°C 85% 15.9°C 20.1°C 1.7Kts ENE 0.0mm 1015.8hpa 0.0
05:53 18.4°C 85% 15.9°C 20.0°C 0.9Kts ENE 0.0mm 1015.8hpa 0.0
05:51 18.4°C 85% 15.9°C 20.0°C 0.0Kts ESE 0.0mm 1015.8hpa 0.0
05:49 18.4°C 85% 15.9°C 20.0°C 0.9Kts ESE 0.0mm 1015.8hpa 0.0
05:47 18.4°C 86% 16.0°C 20.1°C 0.0Kts S 0.0mm 1015.8hpa 0.0
05:45 18.4°C 86% 16.0°C 20.1°C 2.6Kts S 0.0mm 1015.7hpa 0.0
05:43 18.4°C 86% 16.0°C 20.1°C 0.9Kts ESE 0.0mm 1015.7hpa 0.0
05:41 18.4°C 86% 16.1°C 20.1°C 1.7Kts E 0.0mm 1015.7hpa 0.0
05:39 18.4°C 86% 16.1°C 20.1°C 0.0Kts E 0.0mm 1015.6hpa 0.0
05:37 18.4°C 86% 16.1°C 20.1°C 3.5Kts SSE 0.0mm 1015.6hpa 0.0
05:35 18.4°C 86% 16.1°C 20.1°C 3.5Kts SSE 0.0mm 1015.6hpa 0.0
05:33 18.4°C 86% 16.1°C 20.4°C 2.6Kts E 0.0mm 1015.6hpa 0.0
05:31 18.5°C 86% 16.1°C 20.5°C 0.0Kts ESE 0.0mm 1015.6hpa 0.0
05:29 18.6°C 86% 16.2°C 20.3°C 0.9Kts ESE 0.0mm 1015.5hpa 0.0
05:27 18.6°C 86% 16.2°C 20.3°C 0.9Kts S 0.0mm 1015.6hpa 0.0
05:25 18.6°C 86% 16.2°C 20.3°C 2.6Kts S 0.0mm 1015.5hpa 0.0
05:23 18.6°C 86% 16.2°C 20.3°C 1.7Kts S 0.0mm 1015.5hpa 0.0
05:21 18.7°C 86% 16.3°C 20.5°C 1.7Kts S 0.0mm 1015.4hpa 0.0
05:19 18.7°C 86% 16.3°C 20.8°C 0.0Kts S 0.0mm 1015.4hpa 0.0
05:17 18.7°C 86% 16.3°C 20.5°C 0.0Kts S 0.0mm 1015.4hpa 0.0
05:15 18.7°C 86% 16.3°C 20.5°C 0.0Kts S 0.0mm 1015.5hpa 0.0
05:13 18.8°C 86% 16.4°C 20.6°C 0.0Kts S 0.0mm 1015.5hpa 0.0
05:11 18.8°C 86% 16.4°C 20.6°C 2.6Kts S 0.0mm 1015.6hpa 0.0
05:09 18.8°C 86% 16.4°C 20.6°C 0.9Kts S 0.0mm 1015.5hpa 0.0
05:07 18.9°C 86% 16.5°C 20.8°C 1.7Kts S 0.0mm 1015.5hpa 0.0
05:05 18.9°C 86% 16.5°C 20.8°C 0.9Kts S 0.0mm 1015.5hpa 0.0
05:03 19.0°C 86% 16.6°C 20.9°C 0.0Kts ESE 0.0mm 1015.5hpa 0.0
05:01 19.0°C 86% 16.6°C 20.9°C 0.9Kts ESE 0.0mm 1015.4hpa 0.0
04:59 19.1°C 86% 16.7°C 21.0°C 0.9Kts S 0.0mm 1015.4hpa 0.0
04:57 19.1°C 86% 16.7°C 21.0°C 1.7Kts SSW 0.0mm 1015.3hpa 0.0
04:55 19.2°C 86% 16.8°C 21.2°C 0.9Kts SE 0.0mm 1015.3hpa 0.0
04:53 19.2°C 86% 16.8°C 21.2°C 0.0Kts SSE 0.0mm 1015.3hpa 0.0
04:51 19.2°C 86% 16.8°C 21.2°C 1.7Kts SSE 0.0mm 1015.3hpa 0.0
04:49 19.3°C 86% 16.9°C 21.3°C 0.0Kts E 0.0mm 1015.3hpa 0.0
04:47 19.3°C 85% 16.7°C 21.2°C 1.7Kts S 0.0mm 1015.3hpa 0.0
04:45 19.4°C 85% 16.8°C 21.4°C 0.0Kts SE 0.0mm 1015.3hpa 0.0
04:43 19.4°C 85% 16.9°C 21.4°C 0.0Kts ESE 0.0mm 1015.3hpa 0.0
04:41 19.5°C 85% 16.9°C 21.8°C 1.7Kts SE 0.0mm 1015.4hpa 0.0
04:39 19.6°C 85% 17.0°C 22.0°C 0.0Kts ESE 0.0mm 1015.4hpa 0.0
04:37 19.6°C 85% 17.0°C 22.0°C 0.0Kts ESE 0.0mm 1015.4hpa 0.0
04:35 19.7°C 85% 17.1°C 21.8°C 1.7Kts E 0.0mm 1015.3hpa 0.0
04:33 19.7°C 85% 17.1°C 21.8°C 0.0Kts SE 0.0mm 1015.3hpa 0.0
04:31 19.8°C 85% 17.2°C 21.9°C 0.9Kts E 0.0mm 1015.3hpa 0.0
04:29 19.8°C 85% 17.2°C 21.9°C 0.0Kts E 0.0mm 1015.2hpa 0.0
04:27 19.8°C 85% 17.2°C 21.9°C 0.0Kts ESE 0.0mm 1015.2hpa 0.0
04:25 19.8°C 85% 17.2°C 21.9°C 0.0Kts SE 0.0mm 1015.2hpa 0.0
04:23 19.8°C 86% 17.4°C 22.3°C 0.0Kts SSE 0.0mm 1015.2hpa 0.0
04:21 19.9°C 85% 17.3°C 22.4°C 0.9Kts E 0.0mm 1015.3hpa 0.0
04:19 19.9°C 86% 17.5°C 22.5°C 0.0Kts SE 0.0mm 1015.3hpa 0.0
04:17 19.9°C 86% 17.5°C 22.5°C 0.0Kts SE 0.0mm 1015.3hpa 0.0
04:15 19.9°C 86% 17.5°C 22.5°C 0.0Kts SE 0.0mm 1015.3hpa 0.0
04:13 19.9°C 86% 17.5°C 22.5°C 0.0Kts ESE 0.0mm 1015.3hpa 0.0
04:11 19.9°C 86% 17.5°C 22.5°C 0.9Kts ESE 0.0mm 1015.3hpa 0.0
04:09 19.8°C 86% 17.4°C 22.0°C 0.0Kts ESE 0.0mm 1015.3hpa 0.0
04:07 19.8°C 86% 17.4°C 22.0°C 0.0Kts ESE 0.0mm 1015.3hpa 0.0
04:05 19.8°C 86% 17.4°C 22.0°C 0.0Kts SE 0.0mm 1015.3hpa 0.0
04:03 19.8°C 86% 17.4°C 22.0°C 0.0Kts SSE 0.0mm 1015.3hpa 0.0
04:01 19.8°C 86% 17.4°C 22.0°C 0.9Kts ESE 0.0mm 1015.3hpa 0.0
03:59 19.8°C 86% 17.4°C 22.3°C 2.6Kts E 0.0mm 1015.3hpa 0.0
03:57 19.8°C 86% 17.4°C 22.3°C 0.9Kts ENE 0.0mm 1015.3hpa 0.0
03:55 19.7°C 86% 17.3°C 22.2°C 0.9Kts E 0.0mm 1015.3hpa 0.0
03:53 19.7°C 86% 17.3°C 21.9°C 0.9Kts E 0.0mm 1015.3hpa 0.0
03:51 19.7°C 86% 17.3°C 21.9°C 0.9Kts ESE 0.0mm 1015.3hpa 0.0
03:49 19.7°C 86% 17.3°C 21.9°C 0.0Kts ESE 0.0mm 1015.3hpa 0.0
03:47 19.7°C 86% 17.3°C 21.9°C 0.0Kts ESE 0.0mm 1015.4hpa 0.0
03:45 19.6°C 85% 17.0°C 21.7°C 0.9Kts SSE 0.0mm 1015.4hpa 0.0
03:43 19.6°C 85% 17.0°C 21.7°C 2.6Kts S 0.0mm 1015.4hpa 0.0
03:41 19.6°C 85% 17.0°C 21.7°C 0.0Kts E 0.0mm 1015.3hpa 0.0
03:39 19.6°C 85% 17.0°C 21.7°C 0.0Kts SE 0.0mm 1015.3hpa 0.0
03:37 19.6°C 85% 17.0°C 21.7°C 0.9Kts ESE 0.0mm 1015.3hpa 0.0
03:35 19.6°C 85% 17.0°C 21.7°C 0.0Kts SE 0.0mm 1015.3hpa 0.0
03:33 19.6°C 85% 17.0°C 21.7°C 2.6Kts SE 0.0mm 1015.4hpa 0.0
03:31 19.5°C 85% 16.9°C 21.5°C 1.7Kts S 0.0mm 1015.3hpa 0.0
03:29 19.5°C 85% 16.9°C 21.5°C 0.0Kts ESE 0.0mm 1015.4hpa 0.0
03:27 19.4°C 85% 16.9°C 21.4°C 1.7Kts SSE 0.0mm 1015.4hpa 0.0
03:25 19.4°C 85% 16.9°C 21.4°C 0.9Kts S 0.0mm 1015.4hpa 0.0
03:23 19.4°C 85% 16.9°C 21.4°C 0.0Kts S 0.0mm 1015.5hpa 0.0
03:21 19.4°C 85% 16.8°C 21.4°C 0.0Kts S 0.0mm 1015.5hpa 0.0
03:19 19.4°C 85% 16.8°C 21.4°C 0.9Kts S 0.0mm 1015.5hpa 0.0
03:17 19.3°C 85% 16.7°C 21.2°C 0.9Kts SSE 0.0mm 1015.4hpa 0.0
03:15 19.3°C 85% 16.7°C 21.2°C 1.7Kts SSW 0.0mm 1015.4hpa 0.0
03:13 19.3°C 85% 16.7°C 21.2°C 0.9Kts ESE 0.0mm 1015.4hpa 0.0
03:11 19.3°C 85% 16.7°C 21.2°C 0.9Kts ESE 0.0mm 1015.4hpa 0.0
03:09 19.3°C 85% 16.7°C 21.2°C 0.0Kts ESE 0.0mm 1015.4hpa 0.0
03:07 19.2°C 85% 16.6°C 21.1°C 0.0Kts ESE 0.0mm 1015.4hpa 0.0
03:05 19.2°C 85% 16.6°C 21.1°C 0.0Kts SSE 0.0mm 1015.5hpa 0.0
03:03 19.2°C 85% 16.6°C 21.1°C 1.7Kts SSE 0.0mm 1015.5hpa 0.0
03:01 19.2°C 85% 16.6°C 21.1°C 1.7Kts SSE 0.0mm 1015.5hpa 0.0
02:59 19.2°C 85% 16.6°C 21.1°C 0.9Kts SE 0.0mm 1015.5hpa 0.0
02:57 19.2°C 85% 16.6°C 21.1°C 1.7Kts ESE 0.0mm 1015.5hpa 0.0
02:55 19.2°C 85% 16.6°C 21.1°C 0.9Kts ESE 0.0mm 1015.6hpa 0.0
02:53 19.3°C 85% 16.7°C 21.2°C 0.9Kts SSE 0.0mm 1015.5hpa 0.0
02:51 19.3°C 84% 16.5°C 21.2°C 0.0Kts S 0.0mm 1015.5hpa 0.0
02:49 19.3°C 84% 16.5°C 21.2°C 0.9Kts SSE 0.0mm 1015.5hpa 0.0
02:47 19.3°C 84% 16.5°C 21.2°C 0.9Kts SE 0.0mm 1015.5hpa 0.0
02:45 19.3°C 84% 16.6°C 21.2°C 0.9Kts SE 0.0mm 1015.5hpa 0.0
02:43 19.3°C 84% 16.6°C 21.2°C 0.0Kts ESE 0.0mm 1015.5hpa 0.0
02:41 19.3°C 84% 16.6°C 21.2°C 0.9Kts ESE 0.0mm 1015.6hpa 0.0
02:39 19.3°C 84% 16.6°C 21.2°C 1.7Kts S 0.0mm 1015.6hpa 0.0
02:37 19.3°C 84% 16.6°C 21.2°C 0.9Kts S 0.0mm 1015.6hpa 0.0
02:35 19.3°C 84% 16.6°C 21.2°C 0.9Kts S 0.0mm 1015.6hpa 0.0
02:33 19.3°C 84% 16.6°C 21.2°C 0.9Kts S 0.0mm 1015.6hpa 0.0
02:31 19.3°C 84% 16.6°C 21.5°C 0.0Kts E 0.0mm 1015.6hpa 0.0
02:29 19.3°C 84% 16.6°C 21.5°C 0.0Kts E 0.0mm 1015.6hpa 0.0
02:27 19.3°C 84% 16.6°C 21.5°C 0.0Kts E 0.0mm 1015.6hpa 0.0
02:25 19.3°C 84% 16.6°C 21.5°C 0.0Kts E 0.0mm 1015.6hpa 0.0
02:23 19.3°C 84% 16.6°C 21.5°C 0.9Kts E 0.0mm 1015.7hpa 0.0
02:21 19.3°C 83% 16.4°C 21.4°C 0.0Kts E 0.0mm 1015.7hpa 0.0
02:19 19.4°C 83% 16.4°C 21.6°C 0.0Kts E 0.0mm 1015.7hpa 0.0
02:17 19.4°C 83% 16.5°C 21.6°C 0.0Kts E 0.0mm 1015.7hpa 0.0
02:15 19.4°C 83% 16.5°C 21.6°C 0.0Kts E 0.0mm 1015.6hpa 0.0
02:13 19.5°C 83% 16.5°C 21.7°C 2.6Kts E 0.0mm 1015.7hpa 0.0
02:11 19.6°C 83% 16.6°C 21.8°C 0.0Kts E 0.0mm 1015.6hpa 0.0
02:09 19.6°C 83% 16.6°C 21.8°C 0.9Kts E 0.0mm 1015.7hpa 0.0
02:07 19.6°C 83% 16.6°C 21.5°C 0.0Kts ESE 0.0mm 1015.7hpa 0.0
02:05 19.6°C 83% 16.6°C 21.8°C 0.9Kts ESE 0.0mm 1015.7hpa 0.0
02:03 19.7°C 83% 16.7°C 22.0°C 0.0Kts ESE 0.0mm 1015.7hpa 0.0
02:01 19.7°C 83% 16.7°C 22.0°C 1.7Kts ESE 0.0mm 1015.7hpa 0.0
01:59 19.7°C 83% 16.8°C 22.0°C 0.0Kts ESE 0.0mm 1015.8hpa 0.0
01:57 19.7°C 83% 16.8°C 22.0°C 3.5Kts SE 0.0mm 1015.8hpa 0.0
01:55 19.8°C 83% 16.8°C 21.8°C 1.7Kts ENE 0.0mm 1015.8hpa 0.0
01:53 19.8°C 83% 16.8°C 21.8°C 0.0Kts ENE 0.0mm 1015.9hpa 0.0
01:51 19.8°C 83% 16.8°C 21.8°C 0.0Kts ESE 0.0mm 1015.9hpa 0.0
01:49 19.8°C 83% 16.9°C 21.8°C 1.7Kts ESE 0.0mm 1016.0hpa 0.0
01:47 19.8°C 83% 16.9°C 21.8°C 0.0Kts ESE 0.0mm 1016.0hpa 0.0
01:45 19.9°C 83% 16.9°C 21.9°C 1.7Kts E 0.0mm 1016.0hpa 0.0
01:43 19.9°C 82% 16.7°C 21.8°C 0.0Kts E 0.0mm 1016.0hpa 0.0
01:41 19.9°C 82% 16.7°C 21.8°C 1.7Kts E 0.0mm 1016.0hpa 0.0
01:39 19.9°C 82% 16.8°C 21.8°C 0.9Kts E 0.0mm 1016.0hpa 0.0
01:37 19.9°C 82% 16.8°C 21.8°C 0.0Kts E 0.0mm 1016.0hpa 0.0
01:35 19.9°C 82% 16.8°C 21.8°C 0.9Kts E 0.0mm 1016.0hpa 0.0
01:33 19.9°C 82% 16.8°C 21.8°C 0.0Kts ESE 0.0mm 1016.1hpa 0.0
01:31 19.9°C 82% 16.8°C 21.8°C 0.0Kts E 0.0mm 1016.1hpa 0.0
01:29 19.9°C 82% 16.8°C 21.8°C 0.9Kts SE 0.0mm 1016.1hpa 0.0
01:27 19.9°C 82% 16.8°C 21.8°C 0.9Kts E 0.0mm 1016.1hpa 0.0
01:25 20.0°C 82% 16.8°C 22.0°C 0.0Kts E 0.0mm 1016.2hpa 0.0
01:23 20.0°C 82% 16.8°C 22.0°C 0.0Kts E 0.0mm 1016.2hpa 0.0
01:21 19.9°C 82% 16.8°C 21.8°C 0.9Kts E 0.0mm 1016.2hpa 0.0
01:19 20.0°C 82% 16.8°C 22.0°C 5.2Kts E 0.0mm 1016.2hpa 0.0
01:17 20.0°C 82% 16.8°C 22.0°C 0.0Kts ESE 0.0mm 1016.2hpa 0.0
01:15 20.0°C 82% 16.8°C 22.0°C 1.7Kts ESE 0.0mm 1016.2hpa 0.0
01:13 20.1°C 82% 16.9°C 22.1°C 0.9Kts ESE 0.0mm 1016.2hpa 0.0
01:11 20.1°C 82% 16.9°C 22.1°C 0.0Kts ESE 0.0mm 1016.2hpa 0.0
01:09 20.1°C 82% 16.9°C 22.1°C 0.0Kts ESE 0.0mm 1016.2hpa 0.0
01:07 20.1°C 82% 16.9°C 22.1°C 0.9Kts ESE 0.0mm 1016.3hpa 0.0
01:05 20.1°C 82% 16.9°C 22.1°C 0.9Kts ESE 0.0mm 1016.3hpa 0.0
01:03 20.1°C 82% 16.9°C 21.8°C 0.9Kts E 0.0mm 1016.2hpa 0.0
01:01 20.1°C 82% 16.9°C 21.8°C 0.0Kts E 0.0mm 1016.3hpa 0.0
00:59 20.1°C 82% 16.9°C 21.8°C 0.0Kts SSE 0.0mm 1016.3hpa 0.0
00:57 20.1°C 82% 16.9°C 21.8°C 0.9Kts ESE 0.0mm 1016.3hpa 0.0
00:55 20.1°C 82% 16.9°C 21.8°C 1.7Kts ESE 0.0mm 1016.3hpa 0.0
00:53 20.1°C 83% 17.1°C 21.9°C 0.0Kts SE 0.0mm 1016.3hpa 0.0
00:51 20.1°C 83% 17.1°C 21.9°C 2.6Kts E 0.0mm 1016.3hpa 0.0
00:49 20.1°C 83% 17.1°C 21.9°C 0.9Kts ESE 0.0mm 1016.3hpa 0.0
00:47 20.1°C 83% 17.1°C 21.9°C 0.9Kts ENE 0.0mm 1016.3hpa 0.0
00:45 20.1°C 83% 17.1°C 21.9°C 1.7Kts SE 0.0mm 1016.3hpa 0.0
00:43 20.1°C 83% 17.1°C 22.2°C 5.2Kts E 0.0mm 1016.3hpa 0.0
00:41 20.1°C 83% 17.1°C 22.2°C 1.7Kts ESE 0.0mm 1016.3hpa 0.0
00:39 20.1°C 83% 17.1°C 22.2°C 2.6Kts ESE 0.0mm 1016.4hpa 0.0
00:37 20.1°C 83% 17.1°C 22.2°C 1.7Kts ESE 0.0mm 1016.4hpa 0.0
00:35 20.2°C 83% 17.2°C 22.3°C 0.0Kts ENE 0.0mm 1016.4hpa 0.0
00:33 20.2°C 83% 17.2°C 22.3°C 0.9Kts E 0.0mm 1016.4hpa 0.0
00:31 20.2°C 83% 17.2°C 22.3°C 0.0Kts E 0.0mm 1016.4hpa 0.0
00:29 20.2°C 83% 17.2°C 22.3°C 0.0Kts ESE 0.0mm 1016.5hpa 0.0
00:27 20.2°C 83% 17.2°C 22.3°C 1.7Kts ENE 0.0mm 1016.5hpa 0.0
00:25 20.2°C 83% 17.2°C 22.3°C 0.9Kts SE 0.0mm 1016.5hpa 0.0
00:23 20.2°C 83% 17.2°C 22.3°C 2.6Kts ESE 0.0mm 1016.6hpa 0.0
00:21 20.2°C 83% 17.2°C 22.3°C 0.0Kts E 0.0mm 1016.6hpa 0.0
00:19 20.3°C 83% 17.3°C 22.5°C 2.6Kts ENE 0.0mm 1016.6hpa 0.0
00:17 20.3°C 83% 17.3°C 22.5°C 0.0Kts E 0.0mm 1016.6hpa 0.0
00:15 20.3°C 83% 17.3°C 22.5°C 0.9Kts E 0.0mm 1016.6hpa 0.0
00:13 20.3°C 83% 17.3°C 22.5°C 2.6Kts E 0.0mm 1016.6hpa 0.0
00:11 20.4°C 83% 17.4°C 22.6°C 0.9Kts E 0.0mm 1016.7hpa 0.0
00:09 20.4°C 83% 17.4°C 22.6°C 0.0Kts E 0.0mm 1016.6hpa 0.0
00:07 20.4°C 83% 17.5°C 22.6°C 1.7Kts E 0.0mm 1016.6hpa 0.0
00:05 20.4°C 83% 17.5°C 22.6°C 2.6Kts SSE 0.0mm 1016.6hpa 0.0
00:03 20.4°C 83% 17.5°C 22.6°C 0.0Kts ESE 0.0mm 1016.7hpa 0.0
00:01 20.4°C 83% 17.5°C 22.6°C 2.6Kts ENE 0.0mm 1016.7hpa 0.0